Weather observations for the past three days for
Sierra Blanca Regional Airport
Imperial (Metric)
Date Time (mdt) Wind (mph) Vis. (mi.) Weather Sky Cond. Temperature (ºF) Relative Humidity Wind Chill (°F) Heat Index (°F) Pressure Precipitation (in)
Air Dwpt 6 hour altimeter (in) sea level (mb) 1 hr 3 hr 6 hr
Max. Min.
12 21:55 Calm 10.00 Fair CLR 71.6 41 33% 30.29 0.0
12 21:35 E 5 10.00 Fair CLR 71.6 41 33% 30.28 0.0
12 21:15 SE 8 10.00 Fair CLR 73.4 41 31% 30.27 0.0
12 20:55 SE 12 10.00 Fair CLR 75.2 41 29% 77 30.27 0.0
12 20:35 SE 15 10.00 Fair CLR 77 44.6 32% 78 30.27 0.0
12 20:15 SE 13 10.00 Fair CLR 77 46.4 34% 78 30.26 0.0
12 19:55 SE 16 10.00 Fair CLR 80.6 46.4 30% 80 30.25 0.0
12 19:35 NE 3 10.00 Fair CLR 86 24.8 11% 83 30.25 0.0
12 19:15 NW 12 10.00 Fair CLR 87.8 23 9% 84 30.24 0.0
12 18:55 NW 13 G 21 10.00 Fair CLR 87.8 23 9% 84 30.24 0.0
12 18:35 N 9 10.00 Fair CLR 89.6 23 9% 86 30.24 0.0
12 18:15 N 14 G 18 10.00 Fair CLR 86 24.8 11% 83 30.24 0.0
12 17:55 NW 16 G 28 10.00 Fair CLR 89.6 24.8 9% 86 30.24 0.0
12 17:35 W 14 G 24 10.00 Fair CLR 89.6 28.4 11% 86 30.24 0.0
12 17:15 NW 15 G 23 10.00 Fair CLR 86 30.2 13% 83 30.24 0.0
12 16:55 W 8 10.00 Fair CLR 86 32 14% 83 30.25 0.0
12 16:35 NW 9 G 24 10.00 Fair CLR 87.8 32 13% 84 30.26 0.0
12 16:15 N 14 G 23 10.00 Fair CLR 89.6 32 13% 86 30.26 0.0
12 15:55 W 12 G 20 10.00 A Few Clouds FEW120 89.6 32 13% 86 30.27 0.0
12 15:35 NW 13 G 16 10.00 A Few Clouds FEW120 87.8 32 13% 84 30.28 0.0
12 15:15 NW 10 G 16 10.00 Fair CLR 87.8 32 13% 84 30.29 0.0
12 14:55 NW 17 G 26 10.00 Fair CLR 87.8 32 13% 84 30.29 0.0
12 14:35 NW 14 G 21 10.00 Fair CLR 87.8 32 13% 84 30.3 0.0
12 14:15 W 7 G 20 10.00 Fair CLR 86 32 14% 83 30.3 0.0
12 13:55 N 14 G 17 10.00 Fair CLR 86 32 14% 83 30.31 0.0
12 13:35 W 9 G 18 10.00 Fair CLR 86 30.2 13% 83 30.32 0.0
12 13:15 N 12 G 22 10.00 Fair CLR 86 32 14% 83 30.31 0.0
12 12:55 NW 5 G 21 10.00 Fair CLR 86 30.2 13% 83 30.32 0.0
12 12:35 NW 12 G 22 10.00 Fair CLR 86 35.6 17% 83 30.32 0.0
12 12:15 N 16 G 23 10.00 Fair CLR 84.2 37.4 19% 81 30.32 0.0
12 11:55 NW 13 G 22 10.00 Fair CLR 84.2 39.2 20% 81 30.32 0.0
12 11:15 NW 14 G 20 10.00 Fair CLR 84.2 41 22% 82 30.32 0.0
12 10:55 NW 14 G 25 10.00 Fair CLR 82.4 42.8 25% 80 30.32 0.0
12 10:35 N 12 G 17 10.00 Fair CLR 82.4 46.4 28% 81 30.32 0.0
12 10:15 NW 9 10.00 Fair CLR 78.8 48.2 34% 79 30.33 0.0
12 09:55 NE 6 10.00 Fair CLR 77 48.2 36% 78 30.33 0.0
12 09:35 Calm 10.00 Fair CLR 75.2 48.2 39% 77 30.33 0.0
12 09:15 N 5 10.00 Fair CLR 73.4 46.4 38% 30.33 0.0
12 08:35 N 3 10.00 Fair CLR 69.8 50 50% 30.33 0.0
12 08:15 N 5 10.00 Fair CLR 66.2 50 56% 30.32 0.0
12 07:55 Calm 10.00 Fair CLR 64.4 50 60% 30.32 0.0
12 07:35 Calm 10.00 Fair CLR 64.4 46.4 52% 30.32 0.0
12 07:15 W 5 10.00 Fair CLR 62.6 46.4 56% 30.31 0.0
12 06:55 W 5 10.00 Fair CLR 60.8 46.4 59% 30.31 0.0
12 06:35 W 5 10.00 Fair CLR 57.2 48.2 72% 30.3 0.0
12 06:15 Calm 10.00 Fair CLR 59 46.4 63% 30.3 0.0
12 05:55 W 3 10.00 Fair CLR 59 46.4 63% 30.29 0.0
12 05:35 Calm 10.00 A Few Clouds FEW050 59 46.4 63% 30.29 0.0
12 05:15 NE 3 10.00 Partly Cloudy SCT060 59 48.2 68% 30.29 0.0
12 04:55 Calm 10.00 Mostly Cloudy BKN060 59 46.4 63% 30.28 0.0
12 04:35 Calm 10.00 Mostly Cloudy BKN060 59 48.2 68% 30.29 0.0
12 04:15 Calm 10.00 Mostly Cloudy BKN060 57.2 48.2 72% 30.28 0.0
12 03:55 SE 3 10.00 Partly Cloudy SCT060 57.2 46.4 67% 30.28 0.0
12 03:35 S 7 10.00 A Few Clouds FEW060 57.2 48.2 72% 30.28 0.0
12 03:15 S 6 10.00 Fair CLR 59 48.2 68% 30.28 0.0
12 02:55 S 6 10.00 Fair CLR 57.2 48.2 72% 30.27 0.0
12 02:35 SW 3 10.00 Fair CLR 60.8 48.2 63% 30.28 0.0
12 02:15 Calm 10.00 Fair CLR 59 50 72% 30.28 0.0
12 01:55 S 7 10.00 A Few Clouds FEW120 57.2 51.8 82% 30.28 0.0
12 01:35 S 3 10.00 A Few Clouds FEW120 57.2 53.6 88% 30.29 0.0
12 01:15 Calm 10.00 A Few Clouds FEW120 59 51.8 77% 30.3 0.0
12 00:55 S 3 10.00 Fair CLR 59 51.8 77% 30.3 0.0
12 00:35 SW 9 10.00 A Few Clouds FEW090 FEW110 59 53.6 82% 30.31 0.0
12 00:15 W 7 10.00 Mostly Cloudy SCT090 BKN110 59 53.6 82% 30.32 0.0
11 23:55 Calm 10.00 Mostly Cloudy FEW019 SCT045 BKN070 60.8 50 68% 30.33 0.0
11 23:35 Calm 10.00 Light Rain FEW042 BKN090 BKN110 59 51.8 77% 30.35 0.0
11 23:15 N 3 10.00 A Few Clouds FEW110 60.8 53.6 77% 30.34 0.0
11 22:55 SW 12 10.00 A Few Clouds FEW110 60.8 53.6 77% 30.33 0.0
11 22:35 S 7 10.00 Fair CLR 59 53.6 82% 30.33 0.0
11 22:15 SW 9 10.00 Fair CLR 59 53.6 82% 30.33 0.0
11 21:55 S 8 10.00 A Few Clouds FEW085 60.8 53.6 77% 30.33 0.0
11 21:35 E 7 10.00 Mostly Cloudy BKN085 59 53.6 82% 30.31 0.0
11 21:15 NE 7 10.00 Mostly Cloudy BKN095 59 53.6 82% 30.31 0.0
11 20:55 SE 10 10.00 A Few Clouds FEW010 59 51.8 77% 30.29 0.0 0.37
11 20:35 SE 9 5.00 Light Rain SCT009 BKN029 BKN043 57.2 50 77% 30.28 0.0 0.36
11 20:15 NE 31 G 40 5.00 Light Rain and Windy FEW005 BKN075 OVC090 68 50 53% 30.3 0.0 0.1
11 19:55 E 13 10.00 Mostly Cloudy BKN090 73.4 46.4 38% 30.26 0.0
11 19:35 E 16 10.00 Partly Cloudy SCT100 77 44.6 32% 78 30.24 0.0
11 19:15 E 14 G 20 10.00 Partly Cloudy SCT100 SCT120 77 44.6 32% 78 30.24 0.0
11 18:55 SE 13 G 18 10.00 Mostly Cloudy BKN090 78.8 42.8 28% 78 30.23 0.0
11 18:35 SE 18 10.00 Overcast OVC100 80.6 41 24% 79 30.22 0.0
11 18:15 S 15 10.00 Mostly Cloudy BKN110 82.4 41 23% 80 30.21 0.0
11 17:55 W 5 10.00 Partly Cloudy SCT110 82.4 37.4 20% 80 30.2 0.0
11 17:35 N 6 10.00 Mostly Cloudy BKN110 82.4 37.4 20% 80 30.2 0.0
11 17:15 N 9 10.00 A Few Clouds FEW100 82.4 37.4 20% 80 30.2 0.0
11 16:55 E 6 10.00 Fair CLR 82.4 37.4 20% 80 30.2 0.0
11 16:35 NE 8 10.00 Fair CLR 82.4 37.4 20% 80 30.21 0.0
11 16:15 NE 8 10.00 Partly Cloudy SCT110 80.6 37.4 21% 79 30.21 0.0
11 15:55 NE 6 10.00 Partly Cloudy SCT095 80.6 37.4 21% 79 30.22 0.0
11 15:35 Calm 10.00 Mostly Cloudy FEW095 BKN120 80.6 37.4 21% 79 30.23 0.0
11 15:15 Calm 10.00 Mostly Cloudy BKN095 80.6 37.4 21% 79 30.23 0.0
11 14:55 NE 8 G 20 10.00 Mostly Cloudy BKN095 80.6 35.6 20% 79 30.24 0.0
11 14:35 NW 9 G 18 10.00 A Few Clouds FEW095 80.6 35.6 20% 79 30.24 0.0
11 14:15 NE 7 G 21 10.00 A Few Clouds FEW085 82.4 37.4 20% 80 30.24 0.0
11 13:55 NE 14 G 22 10.00 Partly Cloudy SCT085 80.6 37.4 21% 79 30.24 0.0
11 13:35 NE 15 G 20 10.00 Partly Cloudy SCT085 80.6 37.4 21% 79 30.24 0.0
11 13:15 N 13 G 23 10.00 Mostly Cloudy BKN085 80.6 37.4 21% 79 30.25 0.0
11 12:55 NW 14 G 21 10.00 A Few Clouds FEW085 78.8 37.4 23% 78 30.26 0.0
11 12:35 N 12 G 23 10.00 Fair CLR 80.6 37.4 21% 79 30.26 0.0
11 12:15 N 10 G 20 10.00 Fair CLR 80.6 37.4 21% 79 30.26 0.0
11 11:55 NW 9 G 17 10.00 Fair CLR 77 39.2 26% 77 30.26 0.0
11 11:35 N 10 G 20 10.00 Fair CLR 75.2 39.2 27% 77 30.26 0.0
11 11:15 N 7 G 18 10.00 Fair CLR 75.2 39.2 27% 77 30.26 0.0
11 10:55 NW 12 G 18 10.00 Fair CLR 75.2 39.2 27% 77 30.26 0.0
11 10:35 W 10 G 21 10.00 Fair CLR 73.4 39.2 29% 30.26 0.0
11 10:15 NW 14 G 23 10.00 Fair CLR 73.4 39.2 29% 30.26 0.0
11 09:55 NW 13 G 22 10.00 Fair CLR 73.4 39.2 29% 30.26 0.0
11 09:35 NW 16 G 23 10.00 Fair CLR 73.4 39.2 29% 30.26 0.0
11 09:15 NW 15 G 24 10.00 Fair CLR 71.6 39.2 31% 30.26 0.0
11 08:55 NW 15 G 21 10.00 Fair CLR 71.6 39.2 31% 30.25 0.0
11 08:35 NW 10 G 18 10.00 Fair CLR 69.8 39.2 33% 30.25 0.0
11 08:15 NW 6 G 16 10.00 Fair CLR 68 41 38% 30.25 0.0
11 07:55 N 8 10.00 Fair CLR 66.2 41 40% 30.24 0.0
11 07:35 N 6 10.00 Fair CLR 64.4 41 43% 30.24 0.0
11 07:15 NE 3 10.00 Fair CLR 62.6 41 45% 30.23 0.0
11 06:55 W 3 10.00 Fair CLR 60.8 39.2 45% 30.23 0.0
11 06:35 W 3 10.00 Fair CLR 59 39.2 48% 30.23 0.0
11 06:15 Calm 10.00 Fair CLR 59 39.2 48% 30.22 0.0
11 05:55 Calm 10.00 A Few Clouds FEW120 59 39.2 48% 30.22 0.0
11 05:35 NW 5 10.00 A Few Clouds FEW120 57.2 39.2 51% 30.22 0.0
11 05:15 NW 6 10.00 Fair CLR 59 39.2 48% 30.21 0.0
11 04:55 W 7 10.00 Fair CLR 57.2 39.2 51% 30.21 0.0
11 04:35 W 7 10.00 Fair CLR 59 39.2 48% 30.2 0.0
11 04:15 W 5 10.00 Fair CLR 59 39.2 48% 30.21 0.0
11 03:55 W 8 10.00 Fair CLR 59 41 51% 30.2 0.0
11 03:35 W 9 10.00 A Few Clouds FEW120 60.8 41 48% 30.21 0.0
11 03:15 NW 9 10.00 Fair CLR 59 39.2 48% 30.21 0.0
11 02:55 NW 7 10.00 Partly Cloudy SCT120 60.8 39.2 45% 30.21 0.0
11 02:35 N 7 10.00 Partly Cloudy SCT110 59 39.2 48% 30.22 0.0
11 02:15 N 3 10.00 Mostly Cloudy BKN100 59 39.2 48% 30.22 0.0
11 01:55 W 6 10.00 Mostly Cloudy SCT090 BKN110 62.6 37.4 39% 30.22 0.0
11 01:35 W 7 10.00 Overcast BKN090 OVC110 62.6 39.2 42% 30.22 0.0
11 01:15 SW 9 10.00 Overcast BKN090 OVC120 62.6 39.2 42% 30.22 0.0
11 00:55 SW 8 10.00 Overcast BKN090 OVC110 62.6 39.2 42% 30.23 0.0
11 00:35 W 5 10.00 Mostly Cloudy SCT095 BKN120 62.6 39.2 42% 30.23 0.0
11 00:15 W 8 10.00 A Few Clouds FEW095 FEW120 62.6 39.2 42% 30.23 0.0
10 23:55 SW 8 10.00 Mostly Cloudy BKN120 62.6 39.2 42% 30.24 0.0
10 23:35 W 7 10.00 Overcast FEW090 OVC120 62.6 39.2 42% 30.24 0.0
10 23:15 SW 6 10.00 Overcast OVC120 62.6 39.2 42% 30.25 0.0
10 22:55 S 6 10.00 Mostly Cloudy BKN120 60.8 39.2 45% 30.25 0.0
10 22:35 S 8 10.00 A Few Clouds FEW110 60.8 39.2 45% 30.25 0.0
10 22:15 Calm 10.00 Partly Cloudy SCT110 62.6 39.2 42% 30.25 0.0
10 21:55 NW 5 10.00 Fair CLR 64.4 39.2 40% 30.24 0.0
10 21:35 W 6 10.00 Fair CLR 64.4 39.2 40% 30.23 0.0
10 21:15 NW 6 10.00 Fair CLR 64.4 39.2 40% 30.22 0.0
10 20:55 NW 8 10.00 Partly Cloudy SCT110 64.4 39.2 40% 30.22 0.0
10 20:35 NW 10 10.00 Mostly Cloudy BKN110 66.2 39.2 37% 30.21 0.0
10 20:15 NW 12 G 16 10.00 A Few Clouds FEW110 66.2 39.2 37% 30.21 0.0
10 19:55 NW 14 G 23 10.00 Partly Cloudy SCT110 66.2 39.2 37% 30.2 0.0
10 19:35 NW 12 G 18 10.00 Fair CLR 68 39.2 35% 30.2 0.0
10 19:15 NW 14 G 22 10.00 Fair CLR 68 39.2 35% 30.2 0.0
10 18:55 NW 16 G 23 10.00 A Few Clouds FEW120 68 39.2 35% 30.2 0.0
10 18:35 W 20 G 26 10.00 Mostly Cloudy BKN120 68 39.2 35% 30.2 0.0
10 18:15 NW 13 G 26 10.00 A Few Clouds FEW060 68 39.2 35% 30.19 0.0
10 17:55 N 15 G 20 10.00 Mostly Cloudy BKN060 68 39.2 35% 30.19 0.0
10 17:35 NW 13 G 24 10.00 Partly Cloudy SCT060 68 39.2 35% 30.2 0.0
10 17:15 W 12 10.00 Partly Cloudy SCT080 66.2 39.2 37% 30.2 0.0
10 16:55 NW 8 G 22 10.00 Mostly Cloudy BKN080 66.2 41 40% 30.21 0.0
10 16:35 NW 10 G 24 10.00 Mostly Cloudy BKN090 66.2 41 40% 30.21 0.0
10 16:15 NW 15 G 24 10.00 Overcast OVC090 66.2 39.2 37% 30.21 0.0
10 15:55 NW 20 G 28 10.00 Mostly Cloudy BKN100 66.2 39.2 37% 30.21 0.0
10 15:35 NW 16 G 28 10.00 Mostly Cloudy BKN100 66.2 39.2 37% 30.22 0.0
10 15:15 NW 16 G 30 10.00 Mostly Cloudy BKN110 66.2 39.2 37% 30.22 0.0
10 14:55 NW 18 G 28 10.00 Mostly Cloudy BKN110 66.2 39.2 37% 30.22 0.0
10 14:35 NW 17 G 32 10.00 Overcast FEW080 OVC110 66.2 41 40% 30.23 0.0
10 14:15 NW 20 G 28 10.00 Mostly Cloudy FEW080 BKN120 66.2 42.8 43% 30.24 0.0
10 13:55 NW 21 G 30 10.00 Partly Cloudy and Breezy FEW070 SCT120 68 42.8 40% 30.24 0.0
10 13:35 NW 23 G 31 10.00 Partly Cloudy and Breezy FEW070 SCT120 68 41 38% 30.24 0.0
10 13:15 NW 16 G 29 10.00 A Few Clouds FEW070 68 41 38% 30.25 0.0
10 12:55 N 20 G 26 10.00 A Few Clouds FEW070 FEW080 68 42.8 40% 30.25 0.0
10 12:35 NW 13 G 26 10.00 Mostly Cloudy SCT070 BKN080 66.2 44.6 46% 30.26 0.0
10 12:15 NW 22 G 35 10.00 Partly Cloudy and Breezy FEW047 SCT070 SCT085 68 42.8 40% 30.27 0.0
10 11:55 N 10 G 18 10.00 A Few Clouds FEW047 68 42.8 40% 30.26 0.0
10 11:35 N 9 10.00 Partly Cloudy FEW041 SCT046 SCT070 64.4 46.4 52% 30.27 0.0
10 11:15 N 13 G 18 10.00 Overcast SCT042 BKN050 OVC065 66.2 46.4 49% 30.27 0.0
10 10:55 N 8 10.00 Mostly Cloudy FEW034 BKN065 BKN075 64.4 46.4 52% 30.27 0.0
10 10:35 NE 7 10.00 Mostly Cloudy FEW036 BKN065 BKN080 64.4 46.4 52% 30.27 0.0
10 10:15 SE 3 10.00 A Few Clouds FEW028 FEW075 FEW090 62.6 48.2 60% 30.28 0.0
10 09:55 SE 5 10.00 Fair CLR 60.8 48.2 63% 30.28 0.0
10 09:35 E 5 10.00 Fair CLR 59 48.2 68% 30.29 0.0
10 09:15 S 8 10.00 Partly Cloudy SCT019 59 48.2 68% 30.3 0.0
10 08:55 S 5 10.00 Mostly Cloudy BKN021 57.2 48.2 72% 30.3 0.0
10 08:35 E 7 10.00 Mostly Cloudy BKN023 57.2 48.2 72% 30.3 0.0
10 08:15 E 3 10.00 Partly Cloudy SCT023 55.4 48.2 77% 30.3 0.0
10 07:55 S 6 10.00 Partly Cloudy SCT023 55.4 48.2 77% 30.3 0.0
10 07:35 SE 7 10.00 Fair CLR 55.4 48.2 77% 30.3 0.0
10 07:15 SE 8 10.00 Fair CLR 53.6 50 88% 30.29 0.0
10 06:55 SE 6 10.00 Fair CLR 53.6 48.2 82% 30.28 0.0
10 06:35 SW 6 10.00 Fair CLR 50 46.4 88% 48 30.27 0.0
10 06:15 Calm 10.00 Fair CLR 50 44.6 82% 30.27 0.0
10 05:55 W 6 10.00 Fair CLR 53.6 44.6 72% 30.26 0.0
10 05:35 SW 7 10.00 Fair CLR 50 46.4 88% 48 30.25 0.0
10 05:15 W 5 10.00 Fair CLR 51.8 46.4 82% 30.25 0.0
10 04:55 SW 7 10.00 Fair CLR 51.8 46.4 82% 30.25 0.0
10 04:35 NW 9 10.00 Fair CLR 53.6 46.4 77% 30.25 0.0
10 04:15 W 7 10.00 A Few Clouds FEW037 53.6 46.4 77% 30.24 0.0
10 03:55 W 6 10.00 A Few Clouds FEW039 53.6 46.4 77% 30.24 0.0
10 03:35 W 8 10.00 A Few Clouds FEW037 53.6 48.2 82% 30.24 0.0
10 03:15 W 8 10.00 Fair CLR 53.6 48.2 82% 30.24 0.0
10 02:55 W 7 10.00 Fair CLR 53.6 50 88% 30.23 0.0
10 02:35 W 8 10.00 Fair CLR 53.6 50 88% 30.24 0.0
10 02:15 W 5 10.00 Fair CLR 53.6 50 88% 30.25 0.0
10 01:55 NW 6 10.00 Fair CLR 53.6 50 88% 30.26 0.0
10 01:35 W 8 10.00 A Few Clouds FEW018 53.6 51.8 94% 30.28 0.0
10 01:15 W 6 10.00 Mostly Cloudy BKN018 55.4 51.8 88% 30.29 0.0
10 00:55 SW 6 10.00 Mostly Cloudy SCT020 BKN026 55.4 51.8 88% 30.29 0.0
10 00:35 W 6 10.00 Mostly Cloudy BKN020 BKN024 BKN041 55.4 53.6 94% 30.31 0.0
10 00:15 SW 6 10.00 Mostly Cloudy FEW020 SCT034 BKN041 55.4 53.6 94% 30.31 0.0
09 23:55 S 7 10.00 Overcast SCT011 BKN030 OVC046 55.4 53.6 94% 30.32 0.0
09 23:35 SE 6 10.00 Overcast BKN010 OVC016 55.4 53.6 94% 30.33 0.0
09 23:15 SE 6 10.00 Overcast OVC008 55.4 53.6 94% 30.34 0.0
09 22:55 SE 7 10.00 Overcast OVC006 55.4 53.6 94% 30.32 0.0
09 22:35 SE 12 10.00 Mostly Cloudy BKN006 55.4 53.6 94% 30.31 0.0
09 22:15 SE 13 10.00 A Few Clouds FEW009 57.2 53.6 88% 30.32 0.0
Date Time (mdt) Wind (mph) Vis. (mi.) Weather Sky Cond. Air Dwpt Max. Min. Relative Humidity Wind Chill (°F) Heat Index (°F) altimeter (in) sea level (mb) 1 hr 3 hr 6 hr
6 hour
Temperature (ºF) Pressure Precipitation (in)